When you browse on this site, cookies collect data to enhance your experience and personalize the content and advertising you see.
Visit our Privacy Policy to learn more. By continuing to use the site, you agree to this use of cookies and data.
  • In Deutschland
  • Länderverzeichnis
  • Für 7 Tage
  • Wassertemperatur
  • Wetterkarte
  • Widgets
  • user-avatar
    Anmelden

    Stündliche Wetter Dülmen

    Heute, 18 September, Mittwoch

    Zeit Temperatur Niederschläge Wind Luftdruck Luftfeuchtigkeit
    00:00 +9°C° 0 mm 3 m/S 761 mmHg 80%
    01:00 +8°C° 0 mm 2 m/S 761 mmHg 80%
    02:00 +8°C° 0 mm 2 m/S 761 mmHg 80%
    03:00 +8°C° 0 mm 2 m/S 761 mmHg 81%
    04:00 +8°C° 0 mm 2 m/S 761 mmHg 81%
    05:00 +8°C° 0 mm 2 m/S 762 mmHg 82%
    06:00 +8°C° 0 mm 2 m/S 762 mmHg 83%
    07:00 +10°C° 0 mm 2 m/S 762 mmHg 74%
    08:00 +12°C° 0 mm 3 m/S 762 mmHg 66%
    09:00 +13°C° 0 mm 3 m/S 762 mmHg 58%
    10:00 +14°C° 0 mm 3 m/S 762 mmHg 56%
    11:00 +14°C° 0 mm 3 m/S 762 mmHg 54%
    12:00 +16°C° 0 mm 3 m/S 762 mmHg 51%
    13:00 +16°C° 0 mm 3 m/S 762 mmHg 52%
    14:00 +16°C° 0 mm 3 m/S 762 mmHg 52%
    15:00 +16°C° 0 mm 3 m/S 762 mmHg 52%
    16:00 +14°C° 0.1 mm 3 m/S 762 mmHg 60%
    17:00 +13°C° 0.1 mm 3 m/S 762 mmHg 68%
    18:00 +12°C° 0.1 mm 3 m/S 762 mmHg 75%
    19:00 +12°C° 0 mm 2 m/S 763 mmHg 78%
    20:00 +10°C° 0 mm 2 m/S 763 mmHg 80%
    21:00 +9°C° 0 mm 2 m/S 764 mmHg 82%
    22:00 +9°C° 0 mm 2 m/S 764 mmHg 83%
    23:00 +10°C° 0 mm 1 m/S 764 mmHg 83%

    Morgen, 19 September, Donnerstag

    Zeit Temperatur Niederschläge Wind Luftdruck Luftfeuchtigkeit
    00:00 +9°C° 0 mm 1 m/S 764 mmHg 84%
    01:00 +9°C° 0 mm 1 m/S 764 mmHg 85%
    02:00 +8°C° 0 mm 1 m/S 764 mmHg 87%
    03:00 +8°C° 0 mm 1 m/S 764 mmHg 88%
    04:00 +8°C° 0 mm 1 m/S 764 mmHg 87%
    05:00 +8°C° 0 mm 1 m/S 764 mmHg 86%
    06:00 +8°C° 0 mm 1 m/S 764 mmHg 85%
    07:00 +10°C° 0 mm 1 m/S 765 mmHg 77%
    08:00 +11°C° 0 mm 1 m/S 765 mmHg 68%
    09:00 +13°C° 0 mm 2 m/S 765 mmHg 60%
    10:00 +14°C° 0 mm 2 m/S 765 mmHg 56%
    11:00 +15°C° 0 mm 2 m/S 765 mmHg 52%
    12:00 +16°C° 0 mm 2 m/S 765 mmHg 48%
    13:00 +16°C° 0 mm 2 m/S 765 mmHg 47%
    14:00 +16°C° 0 mm 2 m/S 765 mmHg 46%
    15:00 +17°C° 0 mm 2 m/S 764 mmHg 45%
    16:00 +15°C° 0 mm 2 m/S 764 mmHg 51%
    17:00 +14°C° 0 mm 2 m/S 764 mmHg 56%
    18:00 +12°C° 0 mm 1 m/S 764 mmHg 61%
    19:00 +12°C° 0 mm 1 m/S 765 mmHg 64%
    20:00 +11°C° 0 mm 1 m/S 765 mmHg 67%
    21:00 +11°C° 0 mm 1 m/S 765 mmHg 69%
    22:00 +10°C° 0 mm 1 m/S 765 mmHg 71%
    23:00 +10°C° 0 mm 1 m/S 765 mmHg 73%

    übermorgen, 20 September, Freitag

    Zeit Temperatur Niederschläge Wind Luftdruck Luftfeuchtigkeit
    00:00 +9°C° 0 mm 1 m/S 765 mmHg 75%
    01:00 +9°C° 0 mm 1 m/S 765 mmHg 76%
    02:00 +9°C° 0 mm 1 m/S 764 mmHg 77%
    03:00 +9°C° 0 mm 1 m/S 764 mmHg 78%
    04:00 +9°C° 0 mm 1 m/S 764 mmHg 78%
    05:00 +9°C° 0 mm 1 m/S 764 mmHg 78%
    06:00 +9°C° 0 mm 1 m/S 764 mmHg 78%
    07:00 +11°C° 0 mm 1 m/S 764 mmHg 71%
    08:00 +12°C° 0 mm 2 m/S 764 mmHg 65%
    09:00 +14°C° 0 mm 2 m/S 764 mmHg 58%
    10:00 +15°C° 0 mm 2 m/S 764 mmHg 55%
    11:00 +16°C° 0 mm 3 m/S 763 mmHg 52%
    12:00 +18°C° 0 mm 3 m/S 763 mmHg 48%
    13:00 +18°C° 0 mm 3 m/S 762 mmHg 48%
    14:00 +18°C° 0 mm 3 m/S 762 mmHg 49%
    15:00 +19°C° 0 mm 3 m/S 761 mmHg 49%
    16:00 +17°C° 0 mm 3 m/S 761 mmHg 55%
    17:00 +16°C° 0 mm 3 m/S 761 mmHg 61%
    18:00 +13°C° 0 mm 3 m/S 761 mmHg 66%
    19:00 +13°C° 0 mm 3 m/S 761 mmHg 69%
    20:00 +12°C° 0 mm 3 m/S 760 mmHg 72%
    21:00 +11°C° 0 mm 3 m/S 760 mmHg 74%
    22:00 +11°C° 0 mm 3 m/S 760 mmHg 74%
    23:00 +11°C° 0 mm 3 m/S 760 mmHg 73%

    21 September, Samstag

    Zeit Temperatur Niederschläge Wind Luftdruck Luftfeuchtigkeit
    00:00 +10°C° 0 mm 3 m/S 760 mmHg 73%
    01:00 +10°C° 0 mm 3 m/S 759 mmHg 72%
    02:00 +9°C° 0 mm 3 m/S 759 mmHg 71%
    03:00 +9°C° 0 mm 3 m/S 759 mmHg 71%
    04:00 +9°C° 0 mm 3 m/S 758 mmHg 70%
    05:00 +9°C° 0 mm 3 m/S 758 mmHg 70%
    06:00 +9°C° 0 mm 3 m/S 757 mmHg 69%
    07:00 +11°C° 0 mm 3 m/S 757 mmHg 62%
    08:00 +13°C° 0 mm 4 m/S 757 mmHg 55%
    09:00 +17°C° 0 mm 4 m/S 757 mmHg 48%
    10:00 +19°C° 0 mm 4 m/S 756 mmHg 43%
    11:00 +20°C° 0 mm 4 m/S 756 mmHg 39%
    12:00 +22°C° 0 mm 4 m/S 755 mmHg 35%
    13:00 +23°C° 0 mm 4 m/S 754 mmHg 36%
    14:00 +23°C° 0 mm 4 m/S 754 mmHg 36%
    15:00 +23°C° 0 mm 4 m/S 753 mmHg 37%
    16:00 +21°C° 0 mm 4 m/S 753 mmHg 42%
    17:00 +19°C° 0 mm 3 m/S 753 mmHg 47%
    18:00 +18°C° 0 mm 3 m/S 753 mmHg 52%
    19:00 +17°C° 0 mm 3 m/S 753 mmHg 55%
    20:00 +16°C° 0 mm 3 m/S 753 mmHg 57%
    21:00 +16°C° 0 mm 3 m/S 752 mmHg 60%
    22:00 +14°C° 0 mm 3 m/S 752 mmHg 61%
    23:00 +14°C° 0 mm 3 m/S 752 mmHg 63%

    22 September, Sonntag

    Zeit Temperatur Niederschläge Wind Luftdruck Luftfeuchtigkeit
    00:00 +14°C° 0 mm 3 m/S 752 mmHg 64%
    01:00 +14°C° 0 mm 3 m/S 751 mmHg 65%
    02:00 +16°C° 0 mm 3 m/S 751 mmHg 66%
    03:00 +16°C° 0 mm 3 m/S 751 mmHg 68%
    04:00 +16°C° 0 mm 3 m/S 751 mmHg 70%
    05:00 +16°C° 0 mm 3 m/S 751 mmHg 72%
    06:00 +16°C° 0 mm 3 m/S 751 mmHg 74%
    07:00 +18°C° 0 mm 3 m/S 751 mmHg 70%
    08:00 +20°C° 0 mm 4 m/S 751 mmHg 65%
    09:00 +22°C° 0 mm 4 m/S 751 mmHg 61%
    10:00 +23°C° 0 mm 4 m/S 750 mmHg 60%
    11:00 +23°C° 0 mm 5 m/S 750 mmHg 60%
    12:00 +25°C° 0 mm 5 m/S 750 mmHg 59%
    13:00 +23°C° 0.2 mm 4 m/S 750 mmHg 64%
    14:00 +22°C° 0.2 mm 3 m/S 749 mmHg 69%
    15:00 +21°C° 0.2 mm 3 m/S 749 mmHg 74%
    16:00 +21°C° 0.4 mm 3 m/S 749 mmHg 77%
    17:00 +20°C° 0.4 mm 3 m/S 750 mmHg 81%
    18:00 +20°C° 0.4 mm 2 m/S 750 mmHg 84%
    19:00 +19°C° 0.4 mm 3 m/S 750 mmHg 86%
    20:00 +19°C° 0.4 mm 4 m/S 750 mmHg 89%
    21:00 +18°C° 0.4 mm 4 m/S 751 mmHg 91%
    22:00 +17°C° 0.9 mm 4 m/S 751 mmHg 90%
    23:00 +15°C° 0.9 mm 4 m/S 751 mmHg 90%

    23 September, Montag

    Zeit Temperatur Niederschläge Wind Luftdruck Luftfeuchtigkeit
    00:00 +14°C° 0.9 mm 4 m/S 751 mmHg 89%
    01:00 +14°C° 0.8 mm 4 m/S 751 mmHg 90%
    02:00 +14°C° 0.8 mm 3 m/S 752 mmHg 90%
    03:00 +14°C° 0.8 mm 3 m/S 752 mmHg 91%
    04:00 +14°C° 0.3 mm 3 m/S 752 mmHg 91%
    05:00 +14°C° 0.3 mm 4 m/S 752 mmHg 91%
    06:00 +14°C° 0.3 mm 4 m/S 753 mmHg 90%
    07:00 +14°C° 0 mm 4 m/S 753 mmHg 86%
    08:00 +15°C° 0 mm 5 m/S 754 mmHg 81%
    09:00 +16°C° 0 mm 5 m/S 754 mmHg 76%
    10:00 +16°C° 0 mm 5 m/S 754 mmHg 72%
    11:00 +17°C° 0 mm 5 m/S 754 mmHg 67%
    12:00 +18°C° 0 mm 4 m/S 755 mmHg 63%
    13:00 +19°C° 0.1 mm 4 m/S 755 mmHg 61%
    14:00 +19°C° 0.1 mm 4 m/S 755 mmHg 59%
    15:00 +20°C° 0.1 mm 4 m/S 755 mmHg 57%
    16:00 +18°C° 0.1 mm 4 m/S 755 mmHg 63%
    17:00 +17°C° 0.1 mm 3 m/S 755 mmHg 69%
    18:00 +16°C° 0.1 mm 2 m/S 755 mmHg 74%
    19:00 +15°C° 0 mm 2 m/S 755 mmHg 76%
    20:00 +15°C° 0 mm 1 m/S 756 mmHg 77%
    21:00 +14°C° 0 mm 1 m/S 756 mmHg 79%
    22:00 +14°C° 0 mm 1 m/S 756 mmHg 79%
    23:00 +14°C° 0 mm 1 m/S 756 mmHg 80%
    Mehr zeigen